Location: Cuiry
(49.3858°N, 3.7708°E)
Time: 21:04:01
(UTC+00:00)

Cosmos 1190 Rocket - Pass Details

Date: 12 January 2026
Orbit: 753 x 775 km, 74.1° (Epoch: 16 February)

Event Time Altitude Azimuth Distance (km) Brightness Sun altitude
Rises 16:59:20 0° 336° (NNW) 3,217 7.2 -7.9°
Reaches altitude 10° 17:01:43 10° 338° (NNW) 2,288 6.5 -8.3°
Maximum altitude 17:06:55 84° 66° (ENE) 765 4.0 -9.0°
Drops below altitude 10° 17:12:05 10° 156° (SSE) 2,278 6.4 -9.8°
Sets 17:14:27 0° 157° (SSE) 3,202 7.2 -10.2°
